Showing default

EUTE 28A (EB 1), 26719

Orbit data source: Space-Track

EUTE 28A (EB 1), 26719 is a payload satellite owned by Eutelsat (FR) in GEO that was launched on Thu, 08 Mar 2001 UTC via an ARIANE 5G launch vehicle from the French Guiana (FRGUI). Payload-class satellites include a variety of spacecraft equipped with specific instruments for various scientific and technological missions. These include communications satellites like Starlink; space stations such as the ISS; scientific satellites like the Hubble; Earth observation satellites from companies like Planet Labs, Umbra, and HawkEye 360; GPS; miniature CubeSats for education and research; and military/defense satellites.

Not visible in the next 10 days
Identifier
26719, 2001-011A
Orbit
GEO
Country
Flag of UnknownUnknown / EUTE
Related business
Manufacturer
Alcatel/Cannes
Mission
Non-operational Commercial Communications
Bus & Motor
SPACEBUS 3000B2, S400
Mass
3,050 kg wet, ~1,300 kg dry
Launch date (UTC)
2001-03-08 (25 years ago)
Launch vehicle
ARIANE 5G
Launch site
French Guiana (FRGUI)
Object type
Payload
Rocket body
Debris
Shape & HBR
Box + 2 Pan, 14.5 m
Radar Cross Section
27.172 m², Large (>1 m²)

Expand to show TLE details & history
Last TLE update: 15 hours ago

TLE from 15 hours ago
0 EUTE 28A (EB 1)
1 26719U 01011A   25308.04428267  .00000023  00000-0  00000-0 0  9994
2 26719   6.8118  69.8869 0004344 239.9252 149.8437  0.98790376 90165
Epoch: 2025-11-04T01:03Z
TLE epoch observation values (Epoch: 2025-11-04T01:03:46.022Z)
Latitude
3.37569°
Longitude
39.991°
Altitude
36,222.108 km
Speed
3.058 km/s
True Right ascension
06h 37m 52s
True Declination
3° 22' 20"
Sunlit
Object was in daylight at epoch
Visualization orbit readout
Latitude
Unknown
Longitude
Unknown
Altitude
Unknown
Speed
Unknown
Apparent Right ascension
Unknown
Apparent Declination
Unknown
Sunlit
N/A
Visualization observer readout
Local Sidereal Time
11:37:06
Azimuth
Unknown
Elevation
Unknown
Doppler factor
Unknown
Orbital elements
Apogee altitude
36,226.607 km
Perigee altitude
36,189.608 km
Semi-major axis
42,586.244 km
Eccentricity
0.00043
Inclination
6.8118°
RAAN
69.8869°
Arg. of periapsis
239.9252°
True anomaly
149.8687°
Mean anomaly
149.8437°
Eccentric anomaly
149.8562°
Mean motion
0.24697 °/min
Orbital period
1,457.68 mins
BSTAR
0
Loading maneuver chart data...
Computing Atmospheric mass density...
Loading historical data...
Loading historical data...
Loading historical data...
Loading historical data...
Loading historical data...
Loading historical data...
Loading historical data...
Other satellites on launch #11 in the year 2001 (2001-03-08 UTC)

Documentation

Showing up to 5 results
|